Weather reports worldwide

Advertisment
La Coruna, Spain (8001): temperature & dewpoint: 06.12.2019 11:00:00 - 12.12.2019 11:00:00 (CET)La Coruna, Spain (8001): wind speed: 06.12.2019 11:00:00 - 12.12.2019 11:00:00 (CET)La Coruna, Spain (8001): wind direction: 06.12.2019 11:00:00 - 12.12.2019 11:00:00 (CET)La Coruna, Spain (8001): reduced air pressure: 06.12.2019 11:00:00 - 12.12.2019 11:00:00 (CET)La Coruna, Spain (8001): visibility: 06.12.2019 11:00:00 - 12.12.2019 11:00:00 (CET)La Coruna, Spain (8001): precipitation: 06.12.2019 11:00:00 - 12.12.2019 11:00:00 (CET)
Date & Time tt [°C] td [°C] ff [km/h] ff [kn] dd ppp [hPa] vv [km] rr [mm]
12.12.2019 11:00:00 12,5 11,6 34 18 WSW 1015,0 3,7 4,0
12.12.2019 10:00:00 12,4 10,8 29 16 SW 1015,5 7 -
12.12.2019 09:00:00 12,0 10,4 24 13 SW 1016,6 7 1,0
12.12.2019 08:00:00 11,7 9,8 22 12 SW 1017,6 10 1,0
12.12.2019 07:00:00 11,8 9,7 22 12 SW 1018,2 12 -
12.12.2019 06:00:00 11,7 9,6 29 16 WSW 1019,0 16 1,0
12.12.2019 05:00:00 11,7 9,6 24 13 WSW 1020,2 13 0,0
12.12.2019 04:00:00 11,5 9,6 24 13 WSW 1021,1 18 -
12.12.2019 03:00:00 11,5 9,6 24 13 SW 1021,8 12 0,0
12.12.2019 02:00:00 11,6 9,5 24 13 SW 1023,0 20 0,0
12.12.2019 01:00:00 11,4 9,5 21 11 SW 1024,1 12 -
12.12.2019 00:00:00 11,2 9,3 18 10 SW 1024,5 16 1,0
11.12.2019 23:00:00 11,3 9,4 16 9 SW 1025,5 18 0,0
11.12.2019 22:00:00 11,4 9,5 16 9 WSW 1025,7 12 -
11.12.2019 21:00:00 11,8 9,2 16 9 SW 1026,0 16 0,0
11.12.2019 20:00:00 12,1 9,3 18 10 WSW 1026,2 14 0,0
11.12.2019 19:00:00 12,1 8,9 18 10 WSW 1026,4 14 -
11.12.2019 18:00:00 12,4 8,5 26 14 W 1026,5 20 0,0
11.12.2019 17:00:00 12,1 9,8 18 10 WSW 1026,5 13 0,0
11.12.2019 16:00:00 11,8 9,2 22 12 WSW 1026,4 15 -
11.12.2019 15:00:00 12,6 9,1 18 10 WSW 1026,4 19 0,0
11.12.2019 14:00:00 11,2 9,5 18 10 WSW 1027,2 18 2,0
11.12.2019 13:00:00 11,2 8,2 16 9 W 1028,0 8 -
11.12.2019 12:00:00 12,0 6,5 21 11 SW 1028,2 20 0,0
11.12.2019 11:00:00 11,7 6,0 18 10 WSW 1028,1 19 0,0
11.12.2019 10:00:00 10,9 5,2 21 11 W 1027,9 22 -
11.12.2019 09:00:00 10,1 5,9 15 8 W 1027,5 20 0,0
11.12.2019 08:00:00 10,7 5,9 26 14 WNW 1027,1 20 0,0
11.12.2019 07:00:00 10,4 4,7 21 11 WNW 1026,4 18 -
11.12.2019 06:00:00 10,9 5,0 21 11 WNW 1025,9 20 0,0
11.12.2019 05:00:00 10,5 8,1 13 7 WNW 1025,5 19 0,2
11.12.2019 04:00:00 9,9 9,3 9 5 W 1025,4 8 -
11.12.2019 03:00:00 9,9 9,1 11 6 W 1024,9 19 2,0
11.12.2019 02:00:00 10,0 9,5 18 10 NW 1024,9 2,8 3,0
11.12.2019 01:00:00 10,9 9,8 15 8 NW 1024,2 10 -
11.12.2019 00:00:00 12,0 10,9 18 10 NW 1022,9 8 3,0
10.12.2019 23:00:00 13,9 11,1 18 10 SSW 1021,0 16 0,0
10.12.2019 22:00:00 13,7 10,7 16 9 SSW 1021,5 18 -
10.12.2019 21:00:00 13,1 10,3 13 7 S 1021,7 20 0,0
10.12.2019 20:00:00 13,1 10,1 13 7 SSE 1022,6 20 0,0
10.12.2019 19:00:00 13,2 9,3 13 7 SSE 1023,1 20 -
10.12.2019 18:00:00 13,6 8,4 15 8 SSE 1023,2 20 0,0
10.12.2019 17:00:00 14,6 7,2 13 7 SSE 1023,7 20 0,0
10.12.2019 16:00:00 14,7 6,8 11 6 S 1023,3 20 -
10.12.2019 15:00:00 14,9 5,9 8 4 SSE 1024,7 20 0,0
10.12.2019 14:00:00 14,7 5,7 5 3 S 1025,8 20 0,0
10.12.2019 13:00:00 13,3 5,4 8 4 SE 1026,5 25 -
10.12.2019 12:00:00 12,7 4,1 15 8 S 1027,2 20 0,0
10.12.2019 11:00:00 11,7 4,4 15 8 S 1027,6 20 0,0
10.12.2019 10:00:00 10,5 4,2 9 5 S 1027,7 22 -
10.12.2019 09:00:00 9,4 4,4 18 10 SSE 1028,0 20 0,0
10.12.2019 08:00:00 9,5 5,3 8 4 SSE 1028,7 20 0,0
10.12.2019 07:00:00 8,8 6,1 5 3 W 1029,2 15 -
10.12.2019 06:00:00 8,6 5,7 5 3 SSE 1029,0 20 0,0
10.12.2019 05:00:00 8,8 6,1 9 5 SSE 1029,3 20 0,0
10.12.2019 04:00:00 8,5 5,9 8 4 SSE 1030,3 15 -
10.12.2019 03:00:00 8,3 6,1 18 10 SSE 1030,1 20 0,0
10.12.2019 02:00:00 9,1 6,9 9 5 SSE 1031,4 19 0,0
10.12.2019 01:00:00 9,4 7,7 9 5 S 1032,2 15 -
10.12.2019 00:00:00 9,2 7,8 8 4 SSE 1032,3 13 0,0
09.12.2019 23:00:00 9,9 8,2 2 1 ESE 1033,3 10 0,0
09.12.2019 22:00:00 10,5 8,6 5 3 SSE 1033,3 12 -
09.12.2019 21:00:00 10,9 8,8 5 3 SW 1033,4 10 0,0
09.12.2019 20:00:00 11,5 9,1 4 2 SW 1033,2 6 0,0
09.12.2019 19:00:00 11,9 9,1 2 1 WSW 1032,8 9 -
09.12.2019 18:00:00 12,7 9,0 4 2 SE 1032,7 14 0,0
09.12.2019 17:00:00 13,0 9,1 2 1 WSW 1032,7 9 0,0
09.12.2019 16:00:00 13,5 9,7 5 3 W 1032,7 10 -
09.12.2019 15:00:00 13,9 10,1 9 5 WNW 1033,0 10 0,0
09.12.2019 14:00:00 14,1 9,9 8 4 W 1033,2 9 0,0
09.12.2019 13:00:00 13,8 9,2 9 5 WSW 1033,6 12 -
09.12.2019 12:00:00 13,6 9,8 5 3 W 1034,3 10 0,0
09.12.2019 11:00:00 13,0 9,6 9 5 WSW 1033,7 10 0,0
09.12.2019 10:00:00 12,3 9,5 5 3 W 1033,2 12 -
09.12.2019 09:00:00 12,1 9,3 9 5 WSW 1032,7 10 0,0
09.12.2019 08:00:00 12,0 9,4 9 5 WSW 1032,4 11 0,0
09.12.2019 07:00:00 11,9 9,3 13 7 WSW 1031,9 15 -
09.12.2019 06:00:00 11,7 9,3 9 5 SW 1031,4 12 0,0
09.12.2019 05:00:00 11,8 9,2 11 6 WSW 1031,6 13 0,0
09.12.2019 04:00:00 11,5 8,7 9 5 WSW 1031,7 15 -
09.12.2019 03:00:00 11,5 8,5 11 6 SW 1031,0 16 0,0
09.12.2019 02:00:00 11,4 8,3 11 6 WSW 1031,2 17 0,0
09.12.2019 01:00:00 11,1 8,0 11 6 SW 1031,2 15 -
09.12.2019 00:00:00 11,7 8,5 13 7 SW 1030,7 17 0,0
08.12.2019 23:00:00 11,6 8,4 9 5 SW 1030,7 18 0,0
08.12.2019 22:00:00 11,4 8,3 11 6 W 1030,3 18 -
08.12.2019 21:00:00 11,8 9,0 9 5 WNW 1029,7 15 0,0
08.12.2019 20:00:00 12,0 9,7 8 4 W 1029,2 12 0,0
08.12.2019 19:00:00 12,0 9,0 11 6 SW 1028,6 17 -
08.12.2019 18:00:00 12,2 9,8 8 4 WSW 1028,2 14 0,0
08.12.2019 17:00:00 12,9 9,3 5 3 W 1027,5 16 0,0
08.12.2019 16:00:00 13,5 9,2 8 4 NW 1027,2 19 -
08.12.2019 15:00:00 13,5 9,9 9 5 NW 1026,8 15 0,0
08.12.2019 14:00:00 13,6 10,9 9 5 NW 1026,6 14 0,0
08.12.2019 13:00:00 13,4 12,6 13 7 WNW 1026,4 20 -
08.12.2019 12:00:00 13,2 12,7 13 7 NNW 1026,0 3,2 1,0
08.12.2019 11:00:00 14,6 14,1 18 10 WSW 1025,0 7 0,2
08.12.2019 10:00:00 14,6 14,0 16 9 WSW 1024,2 4,0 -
08.12.2019 09:00:00 14,4 13,6 16 9 SW 1023,0 7 2,0
08.12.2019 08:00:00 14,3 13,5 9 5 WSW 1022,9 3,3 1,0
08.12.2019 07:00:00 14,1 13,0 2 1 NNE 1022,0 15 -
08.12.2019 06:00:00 14,2 12,9 9 5 SSE 1022,1 12 0,2
08.12.2019 05:00:00 14,5 12,5 2 1 SSW 1022,6 20 0,0
08.12.2019 04:00:00 14,8 12,5 8 4 SSW 1022,8 18 -
08.12.2019 03:00:00 14,6 12,3 9 5 SSW 1022,9 20 0,0
08.12.2019 02:00:00 14,9 12,4 5 3 S 1023,1 20 0,0
08.12.2019 01:00:00 14,8 12,5 9 5 SSW 1023,4 15 -
08.12.2019 00:00:00 14,7 12,2 8 4 SSE 1023,4 20 0,0
07.12.2019 23:00:00 14,5 12,2 8 4 SSW 1023,5 20 0,0
07.12.2019 22:00:00 14,3 12,3 8 4 SSE 1022,9 18 -
07.12.2019 21:00:00 14,2 12,6 4 2 SSE 1023,1 17 0,2
07.12.2019 20:00:00 14,4 12,1 9 5 SSE 1023,1 20 0,0
07.12.2019 19:00:00 14,3 12,2 5 3 SE 1023,2 16 -
07.12.2019 18:00:00 14,9 12,0 8 4 SSE 1022,9 20 0,0
07.12.2019 17:00:00 15,6 12,3 8 4 SSW 1022,8 20 0,0
07.12.2019 16:00:00 15,1 12,2 9 5 SSE 1022,3 20 -
07.12.2019 15:00:00 15,4 11,8 16 9 S 1022,5 20 0,0
07.12.2019 14:00:00 16,0 12,2 15 8 S 1022,9 20 0,0
07.12.2019 13:00:00 14,7 12,6 9 5 SE 1023,6 15 -
07.12.2019 12:00:00 12,6 11,5 9 5 SSE 1024,4 19 0,0
07.12.2019 11:00:00 12,0 11,2 9 5 SSE 1024,5 11 0,2
07.12.2019 10:00:00 12,0 11,2 9 5 SSE 1024,1 3,0 -
07.12.2019 09:00:00 11,5 11,0 11 6 SSE 1023,6 16 0,2
07.12.2019 08:00:00 11,8 11,0 9 5 S 1023,5 1,7 0,4
07.12.2019 07:00:00 11,7 10,9 9 5 S 1023,1 15 -
07.12.2019 06:00:00 11,3 10,7 11 6 S 1023,1 10 0,0
07.12.2019 05:00:00 10,9 10,4 13 7 SSE 1023,3 8 0,2
07.12.2019 04:00:00 11,1 10,5 9 5 SSE 1023,8 2,0 -
07.12.2019 03:00:00 11,1 10,3 8 4 SE 1023,7 4,2 0,2
07.12.2019 02:00:00 11,5 10,4 8 4 S 1023,9 3,4 0,0
07.12.2019 01:00:00 11,8 9,5 4 2 SSE 1024,2 20 -
07.12.2019 00:00:00 12,1 9,5 5 3 S 1024,1 20 0,0
06.12.2019 23:00:00 12,0 9,2 8 4 S 1024,4 20 0,0
06.12.2019 22:00:00 11,8 9,0 11 6 S 1024,1 20 -
06.12.2019 21:00:00 12,0 9,4 8 4 S 1024,2 19 0,0
06.12.2019 20:00:00 11,6 8,6 8 4 SW 1024,1 19 0,0
06.12.2019 19:00:00 11,9 10,0 5 3 SW 1023,5 16 -
06.12.2019 18:00:00 12,5 10,6 4 2 SW 1022,9 18 0,0
06.12.2019 17:00:00 12,7 10,8 4 2 W 1023,4 15 0,0
06.12.2019 16:00:00 13,0 10,7 4 2 SSW 1022,9 19 -
06.12.2019 15:00:00 13,3 11,0 9 5 W 1023,4 20 0,0
06.12.2019 14:00:00 13,2 11,1 5 3 W 1023,8 19 0,0
06.12.2019 13:00:00 12,8 10,7 4 2 N 1024,7 18 -
06.12.2019 12:00:00 11,1 8,8 4 2 S 1024,8 19 0,0
06.12.2019 11:00:00 10,3 8,6 4 2 SSE 1024,5 19 0,0

tt = temperature
td = dewpoint
ff = wind speed
dd = wind direction
ppp = reduced air pressure
vv = visibility
rr = precipitation

Next stations